contact:dominique.lefevre@mio.osupytheas.fr, maurice.libes@osupytheas.fr, didier.mallarino@osupytheas.fr
Project:EMSO http://www.emso-fr.org/EMSO-France
Depth: 2436.0 m
Title:EMSO Ligure Ouest : Data MII capteur MICROCAT
DateTime_Computer,Latitude,Longitude,Temperature,Conductivity,Pressure,DateTime_Instrument
DateTime_Computer,Latitude,Longitude,degC,S m-1,dbar,DateTime_Instrument
2019-10-16T00:02:11Z,42.805,6.029,13.2955,4.59960,2469.9,2019-10-16T02:02:36Z
2019-10-16T00:05:14Z,42.805,6.029,13.2955,4.59960,2469.923,2019-10-16T02:05:40Z
2019-10-16T00:08:17Z,42.805,6.029,13.2954,4.59961,2469.914,2019-10-16T02:08:43Z
2019-10-16T00:11:21Z,42.805,6.029,13.2960,4.59958,2469.9,2019-10-16T02:11:46Z
2019-10-16T00:14:24Z,42.805,6.029,13.2953,4.59959,2469.923,2019-10-16T02:14:49Z
2019-10-16T00:17:27Z,42.805,6.029,13.2956,4.59958,2469.923,2019-10-16T02:17:53Z
2019-10-16T00:20:30Z,42.805,6.029,13.2957,4.59963,2469.914,2019-10-16T02:20:56Z
2019-10-16T00:23:34Z,42.805,6.029,13.2958,4.59960,2469.914,2019-10-16T02:23:59Z
2019-10-16T00:26:37Z,42.805,6.029,13.2957,4.59960,2469.9,2019-10-16T02:27:02Z
2019-10-16T00:29:40Z,42.805,6.029,13.2958,4.59961,2469.876,2019-10-16T02:30:05Z
2019-10-16T00:32:43Z,42.805,6.029,13.2957,4.59958,2469.89,2019-10-16T02:33:09Z
2019-10-16T00:35:46Z,42.805,6.029,13.2957,4.59964,2469.9,2019-10-16T02:36:12Z
2019-10-16T00:38:50Z,42.805,6.029,13.2955,4.59959,2469.876,2019-10-16T02:39:15Z
2019-10-16T00:41:53Z,42.805,6.029,13.2958,4.59958,2469.876,2019-10-16T02:42:18Z
2019-10-16T00:44:56Z,42.805,6.029,13.2953,4.59960,2469.9,2019-10-16T02:45:22Z
2019-10-16T00:47:59Z,42.805,6.029,13.2956,4.59959,2469.914,2019-10-16T02:48:25Z
2019-10-16T00:51:03Z,42.805,6.029,13.2957,4.59958,2469.89,2019-10-16T02:51:28Z
2019-10-16T00:54:06Z,42.805,6.029,13.2955,4.59960,2469.876,2019-10-16T02:54:31Z
2019-10-16T00:57:09Z,42.805,6.029,13.2958,4.59962,2469.89,2019-10-16T02:57:34Z
2019-10-16T01:00:12Z,42.805,6.029,13.2956,4.59959,2469.876,2019-10-16T03:00:38Z
2019-10-16T01:03:15Z,42.805,6.029,13.2956,4.59961,2469.844,2019-10-16T03:03:41Z
2019-10-16T01:06:19Z,42.805,6.029,13.2959,4.59958,2469.853,2019-10-16T03:06:44Z
2019-10-16T01:09:22Z,42.805,6.029,13.2959,4.59958,2469.853,2019-10-16T03:09:47Z
2019-10-16T01:12:25Z,42.805,6.029,13.2957,4.59958,2469.89,2019-10-16T03:12:51Z
2019-10-16T01:15:28Z,42.805,6.029,13.2956,4.59962,2469.876,2019-10-16T03:15:54Z
2019-10-16T01:18:31Z,42.805,6.029,13.2956,4.59960,2469.853,2019-10-16T03:18:57Z
2019-10-16T01:21:35Z,42.805,6.029,13.2956,4.59959,2469.821,2019-10-16T03:22:00Z
2019-10-16T01:24:38Z,42.805,6.029,13.2957,4.59958,2469.853,2019-10-16T03:25:03Z
2019-10-16T01:27:41Z,42.805,6.029,13.2957,4.59961,2469.89,2019-10-16T03:28:07Z
2019-10-16T01:30:44Z,42.805,6.029,13.2956,4.59964,2469.867,2019-10-16T03:31:10Z
2019-10-16T01:33:48Z,42.805,6.029,13.2952,4.59962,2469.867,2019-10-16T03:34:13Z
2019-10-16T01:36:51Z,42.805,6.029,13.2958,4.59960,2469.83,2019-10-16T03:37:16Z
2019-10-16T01:39:54Z,42.805,6.029,13.2957,4.59958,2469.867,2019-10-16T03:40:20Z
2019-10-16T01:42:57Z,42.805,6.029,13.2956,4.59958,2469.844,2019-10-16T03:43:23Z
2019-10-16T01:46:00Z,42.805,6.029,13.2951,4.59959,2469.867,2019-10-16T03:46:26Z
2019-10-16T01:49:04Z,42.805,6.029,13.2956,4.59960,2469.853,2019-10-16T03:49:29Z
2019-10-16T01:52:07Z,42.805,6.029,13.2958,4.59960,2469.844,2019-10-16T03:52:32Z
2019-10-16T01:55:10Z,42.805,6.029,13.2957,4.59960,2469.83,2019-10-16T03:55:36Z
2019-10-16T01:58:13Z,42.805,6.029,13.2955,4.59961,2469.867,2019-10-16T03:58:39Z
2019-10-16T02:01:17Z,42.805,6.029,13.2953,4.59957,2469.89,2019-10-16T04:01:42Z
2019-10-16T02:04:20Z,42.805,6.029,13.2956,4.59961,2469.867,2019-10-16T04:04:45Z
2019-10-16T02:07:23Z,42.805,6.029,13.2954,4.59958,2469.853,2019-10-16T04:07:48Z
2019-10-16T02:10:26Z,42.805,6.029,13.2957,4.59958,2469.83,2019-10-16T04:10:52Z
2019-10-16T02:13:29Z,42.805,6.029,13.2953,4.59958,2469.876,2019-10-16T04:13:55Z
2019-10-16T02:16:33Z,42.805,6.029,13.2957,4.59958,2469.821,2019-10-16T04:16:58Z
2019-10-16T02:19:36Z,42.805,6.029,13.2958,4.59961,2469.844,2019-10-16T04:20:01Z
2019-10-16T02:22:39Z,42.805,6.029,13.2955,4.59960,2469.853,2019-10-16T04:23:05Z
2019-10-16T02:25:42Z,42.805,6.029,13.2957,4.59958,2469.83,2019-10-16T04:26:08Z
2019-10-16T02:28:46Z,42.805,6.029,13.2953,4.59961,2469.821,2019-10-16T04:29:11Z
2019-10-16T02:31:49Z,42.805,6.029,13.2958,4.59961,2469.83,2019-10-16T04:32:14Z
2019-10-16T02:34:52Z,42.805,6.029,13.2957,4.59963,2469.853,2019-10-16T04:35:17Z
2019-10-16T02:37:55Z,42.805,6.029,13.2956,4.59958,2469.853,2019-10-16T04:38:21Z
2019-10-16T02:40:59Z,42.805,6.029,13.2959,4.59957,2469.867,2019-10-16T04:41:24Z
2019-10-16T02:44:02Z,42.805,6.029,13.2955,4.59958,2469.853,2019-10-16T04:44:27Z
2019-10-16T02:47:05Z,42.805,6.029,13.2957,4.59957,2469.83,2019-10-16T04:47:30Z
2019-10-16T02:50:08Z,42.805,6.029,13.2956,4.59958,2469.83,2019-10-16T04:50:34Z
2019-10-16T02:53:12Z,42.805,6.029,13.2953,4.59956,2469.839,2019-10-16T04:53:37Z
2019-10-16T02:56:15Z,42.805,6.029,13.2956,4.59955,2469.867,2019-10-16T04:56:40Z
2019-10-16T02:59:18Z,42.805,6.029,13.2956,4.59956,2469.853,2019-10-16T04:59:43Z
2019-10-16T03:02:21Z,42.805,6.029,13.2958,4.59956,2469.83,2019-10-16T05:02:47Z
2019-10-16T03:05:24Z,42.805,6.029,13.2955,4.59956,2469.83,2019-10-16T05:05:50Z
2019-10-16T03:08:28Z,42.805,6.029,13.2955,4.59956,2469.867,2019-10-16T05:08:53Z
2019-10-16T03:11:31Z,42.805,6.029,13.2956,4.59957,2469.844,2019-10-16T05:11:56Z
2019-10-16T03:14:34Z,42.805,6.029,13.2955,4.59959,2469.876,2019-10-16T05:14:59Z
2019-10-16T03:17:37Z,42.805,6.029,13.2958,4.59961,2469.867,2019-10-16T05:18:03Z
2019-10-16T03:20:40Z,42.805,6.029,13.2952,4.59956,2469.844,2019-10-16T05:21:06Z
2019-10-16T03:23:44Z,42.805,6.029,13.2953,4.59959,2469.867,2019-10-16T05:24:09Z
2019-10-16T03:26:47Z,42.805,6.029,13.2957,4.59957,2469.83,2019-10-16T05:27:12Z
2019-10-16T03:29:50Z,42.805,6.029,13.2952,4.59959,2469.853,2019-10-16T05:30:16Z
2019-10-16T03:32:53Z,42.805,6.029,13.2956,4.59961,2469.89,2019-10-16T05:33:19Z
2019-10-16T03:35:57Z,42.805,6.029,13.2957,4.59956,2469.89,2019-10-16T05:36:22Z
2019-10-16T03:39:00Z,42.805,6.029,13.2954,4.59964,2469.83,2019-10-16T05:39:25Z
2019-10-16T03:42:03Z,42.805,6.029,13.2957,4.59961,2469.89,2019-10-16T05:42:28Z
2019-10-16T03:45:06Z,42.805,6.029,13.2961,4.59956,2469.876,2019-10-16T05:45:32Z
2019-10-16T03:48:09Z,42.805,6.029,13.2958,4.59958,2469.89,2019-10-16T05:48:35Z
2019-10-16T03:51:13Z,42.805,6.029,13.2956,4.59958,2469.867,2019-10-16T05:51:38Z
2019-10-16T03:54:16Z,42.805,6.029,13.2958,4.59958,2469.876,2019-10-16T05:54:41Z
2019-10-16T03:57:19Z,42.805,6.029,13.2956,4.59957,2469.876,2019-10-16T05:57:44Z
2019-10-16T04:00:22Z,42.805,6.029,13.2956,4.59956,2469.876,2019-10-16T06:00:48Z
2019-10-16T04:03:25Z,42.805,6.029,13.2962,4.59965,2469.914,2019-10-16T06:03:51Z
2019-10-16T04:06:29Z,42.805,6.029,13.2957,4.59966,2469.876,2019-10-16T06:06:54Z
2019-10-16T04:09:32Z,42.805,6.029,13.2957,4.59956,2469.867,2019-10-16T06:09:58Z
2019-10-16T04:12:35Z,42.805,6.029,13.2958,4.59960,2469.89,2019-10-16T06:13:01Z
2019-10-16T04:15:39Z,42.805,6.029,13.2961,4.59958,2469.89,2019-10-16T06:16:04Z
2019-10-16T04:18:42Z,42.805,6.029,13.2957,4.59960,2469.89,2019-10-16T06:19:07Z
2019-10-16T04:21:45Z,42.805,6.029,13.2959,4.59960,2469.89,2019-10-16T06:22:11Z
2019-10-16T04:24:48Z,42.805,6.029,13.2957,4.59970,2469.876,2019-10-16T06:25:14Z
2019-10-16T04:27:52Z,42.805,6.029,13.2957,4.59958,2469.876,2019-10-16T06:28:17Z
2019-10-16T04:30:55Z,42.805,6.029,13.2953,4.59961,2469.876,2019-10-16T06:31:20Z
2019-10-16T04:33:58Z,42.805,6.029,13.2958,4.59958,2469.914,2019-10-16T06:34:23Z
2019-10-16T04:37:01Z,42.805,6.029,13.2957,4.59960,2469.9,2019-10-16T06:37:27Z
2019-10-16T04:40:05Z,42.805,6.029,13.2960,4.59955,2469.89,2019-10-16T06:40:30Z
2019-10-16T04:43:08Z,42.805,6.029,13.2958,4.59968,2469.9,2019-10-16T06:43:33Z
2019-10-16T04:46:11Z,42.805,6.029,13.2961,4.59958,2469.876,2019-10-16T06:46:37Z
2019-10-16T04:49:14Z,42.805,6.029,13.2964,4.59963,2469.876,2019-10-16T06:49:40Z
2019-10-16T04:52:18Z,42.805,6.029,13.2965,4.59974,2469.9,2019-10-16T06:52:43Z
2019-10-16T04:55:21Z,42.805,6.029,13.2953,4.59962,2469.923,2019-10-16T06:55:47Z
2019-10-16T04:58:25Z,42.805,6.029,13.2958,4.59958,2469.9,2019-10-16T06:58:50Z
2019-10-16T05:01:28Z,42.805,6.029,13.2957,4.59958,2469.937,2019-10-16T07:01:53Z
2019-10-16T05:04:31Z,42.805,6.029,13.2953,4.59957,2469.914,2019-10-16T07:04:56Z
2019-10-16T05:07:34Z,42.805,6.029,13.2958,4.59956,2469.923,2019-10-16T07:08:00Z
2019-10-16T05:10:37Z,42.805,6.029,13.2957,4.59958,2469.923,2019-10-16T07:11:03Z
2019-10-16T05:13:41Z,42.805,6.029,13.2956,4.59966,2469.876,2019-10-16T07:14:06Z
2019-10-16T05:16:44Z,42.805,6.029,13.2957,4.59958,2469.937,2019-10-16T07:17:09Z
2019-10-16T05:19:47Z,42.805,6.029,13.2960,4.59960,2469.96,2019-10-16T07:20:13Z
2019-10-16T05:22:50Z,42.805,6.029,13.2957,4.59956,2469.923,2019-10-16T07:23:16Z
2019-10-16T05:25:54Z,42.805,6.029,13.2956,4.59957,2469.914,2019-10-16T07:26:19Z
2019-10-16T05:28:57Z,42.805,6.029,13.2956,4.59958,2469.923,2019-10-16T07:29:22Z
2019-10-16T05:32:00Z,42.805,6.029,13.2957,4.59956,2469.923,2019-10-16T07:32:26Z
2019-10-16T05:35:03Z,42.805,6.029,13.2957,4.59957,2469.937,2019-10-16T07:35:29Z
2019-10-16T05:38:06Z,42.805,6.029,13.2952,4.59957,2469.947,2019-10-16T07:38:32Z
2019-10-16T05:41:10Z,42.805,6.029,13.2957,4.59956,2469.947,2019-10-16T07:41:35Z
2019-10-16T05:44:13Z,42.805,6.029,13.2956,4.59956,2469.96,2019-10-16T07:44:39Z
2019-10-16T05:47:17Z,42.805,6.029,13.2958,4.59956,2469.947,2019-10-16T07:47:42Z
2019-10-16T05:50:20Z,42.805,6.029,13.2958,4.59961,2469.947,2019-10-16T07:50:45Z
2019-10-16T05:53:23Z,42.805,6.029,13.2953,4.59957,2469.937,2019-10-16T07:53:48Z
2019-10-16T05:56:26Z,42.805,6.029,13.2958,4.59959,2469.984,2019-10-16T07:56:52Z
2019-10-16T05:59:29Z,42.805,6.029,13.2955,4.59967,2469.97,2019-10-16T07:59:55Z
2019-10-16T06:02:33Z,42.805,6.029,13.2953,4.59957,2469.947,2019-10-16T08:02:58Z
2019-10-16T06:05:36Z,42.805,6.029,13.2954,4.59956,2469.97,2019-10-16T08:06:01Z
2019-10-16T06:08:39Z,42.805,6.029,13.2956,4.59958,2470.007,2019-10-16T08:09:05Z
2019-10-16T06:11:42Z,42.805,6.029,13.2958,4.59958,2469.97,2019-10-16T08:12:08Z
2019-10-16T06:14:45Z,42.805,6.029,13.2956,4.59965,2469.993,2019-10-16T08:15:11Z
2019-10-16T06:17:49Z,42.805,6.029,13.2954,4.59959,2469.993,2019-10-16T08:18:14Z
2019-10-16T06:20:52Z,42.805,6.029,13.2955,4.59965,2469.993,2019-10-16T08:21:17Z
2019-10-16T06:23:55Z,42.805,6.029,13.2956,4.59986,2470.007,2019-10-16T08:24:21Z
2019-10-16T06:26:58Z,42.805,6.029,13.2953,4.59978,2470.053,2019-10-16T08:27:24Z
2019-10-16T06:30:02Z,42.805,6.029,13.2958,4.59972,2470.007,2019-10-16T08:30:27Z
2019-10-16T06:33:05Z,42.805,6.029,13.2956,4.59974,2469.993,2019-10-16T08:33:30Z
2019-10-16T06:36:08Z,42.805,6.029,13.2957,4.59961,2469.993,2019-10-16T08:36:33Z
2019-10-16T06:39:11Z,42.805,6.029,13.2957,4.60002,2470.03,2019-10-16T08:39:37Z
2019-10-16T06:42:14Z,42.805,6.029,13.2958,4.59992,2470.03,2019-10-16T08:42:40Z
2019-10-16T06:45:18Z,42.805,6.029,13.2954,4.59970,2470.04,2019-10-16T08:45:43Z
2019-10-16T06:48:21Z,42.805,6.029,13.2973,4.59974,2470.017,2019-10-16T08:48:47Z
2019-10-16T06:51:24Z,42.805,6.029,13.2983,4.60013,2470.03,2019-10-16T08:51:50Z
2019-10-16T06:54:28Z,42.805,6.029,13.2956,4.59984,2470.03,2019-10-16T08:54:53Z
2019-10-16T06:57:31Z,42.805,6.029,13.2957,4.59978,2470.03,2019-10-16T08:57:56Z
2019-10-16T07:00:34Z,42.805,6.029,13.2964,4.59983,2470.03,2019-10-16T09:00:59Z
2019-10-16T07:03:37Z,42.805,6.029,13.3003,4.59968,2469.993,2019-10-16T09:04:03Z
2019-10-16T07:06:40Z,42.805,6.029,13.2993,4.59972,2470.053,2019-10-16T09:07:06Z
2019-10-16T07:09:44Z,42.805,6.029,13.2991,4.60019,2470.03,2019-10-16T09:10:09Z
2019-10-16T07:12:47Z,42.805,6.029,13.2985,4.60016,2470.077,2019-10-16T09:13:12Z
2019-10-16T07:15:50Z,42.805,6.029,13.2995,4.60019,2470.04,2019-10-16T09:16:15Z
2019-10-16T07:18:53Z,42.805,6.029,13.3003,4.59994,2470.017,2019-10-16T09:19:19Z
2019-10-16T07:21:56Z,42.805,6.029,13.3001,4.60019,2470.053,2019-10-16T09:22:22Z
2019-10-16T07:25:00Z,42.805,6.029,13.3028,4.60006,2470.053,2019-10-16T09:25:25Z
2019-10-16T07:28:03Z,42.805,6.029,13.3014,4.59986,2470.04,2019-10-16T09:28:28Z
2019-10-16T07:31:06Z,42.805,6.029,13.3015,4.60015,2470.017,2019-10-16T09:31:32Z
2019-10-16T07:34:09Z,42.805,6.029,13.3023,4.60014,2470.053,2019-10-16T09:34:35Z
2019-10-16T07:37:13Z,42.805,6.029,13.3034,4.60024,2470.03,2019-10-16T09:37:38Z
2019-10-16T07:40:16Z,42.805,6.029,13.2987,4.60041,2470.077,2019-10-16T09:40:41Z
2019-10-16T07:43:19Z,42.805,6.029,13.3018,4.59993,2470.04,2019-10-16T09:43:44Z
2019-10-16T07:46:22Z,42.805,6.029,13.3004,4.60001,2470.053,2019-10-16T09:46:48Z
2019-10-16T07:49:25Z,42.805,6.029,13.3011,4.60015,2470.053,2019-10-16T09:49:51Z
2019-10-16T07:52:29Z,42.805,6.029,13.3002,4.60021,2470.04,2019-10-16T09:52:54Z
2019-10-16T07:55:32Z,42.805,6.029,13.2997,4.60006,2470.053,2019-10-16T09:55:57Z
2019-10-16T07:58:35Z,42.805,6.029,13.2995,4.60018,2470.063,2019-10-16T09:59:01Z
2019-10-16T08:01:38Z,42.805,6.029,13.2996,4.60016,2470.053,2019-10-16T10:02:04Z
2019-10-16T08:04:42Z,42.805,6.029,13.3008,4.60066,2470.04,2019-10-16T10:05:07Z
2019-10-16T08:07:45Z,42.805,6.029,13.2993,4.60049,2470.087,2019-10-16T10:08:10Z
2019-10-16T08:10:48Z,42.805,6.029,13.3004,4.60038,2470.053,2019-10-16T10:11:13Z
2019-10-16T08:13:51Z,42.805,6.029,13.2979,4.60024,2470.1,2019-10-16T10:14:17Z
2019-10-16T08:16:54Z,42.805,6.029,13.3004,4.60033,2470.077,2019-10-16T10:17:20Z
2019-10-16T08:19:58Z,42.805,6.029,13.3019,4.60040,2470.063,2019-10-16T10:20:23Z
2019-10-16T08:23:01Z,42.805,6.029,13.3016,4.60064,2470.063,2019-10-16T10:23:26Z
2019-10-16T08:26:04Z,42.805,6.029,13.2976,4.60026,2470.063,2019-10-16T10:26:30Z
2019-10-16T08:29:07Z,42.805,6.029,13.2987,4.60058,2470.077,2019-10-16T10:29:33Z
2019-10-16T08:32:11Z,42.805,6.029,13.3000,4.60004,2470.04,2019-10-16T10:32:36Z
2019-10-16T08:35:14Z,42.805,6.029,13.3007,4.60031,2470.077,2019-10-16T10:35:39Z
2019-10-16T08:38:17Z,42.805,6.029,13.3020,4.60014,2470.063,2019-10-16T10:38:42Z
2019-10-16T08:41:20Z,42.805,6.029,13.3039,4.60029,2470.077,2019-10-16T10:41:46Z
2019-10-16T08:44:23Z,42.805,6.029,13.3044,4.60015,2470.077,2019-10-16T10:44:49Z
2019-10-16T08:47:27Z,42.805,6.029,13.3043,4.60005,2470.077,2019-10-16T10:47:52Z
2019-10-16T08:50:30Z,42.805,6.029,13.3043,4.59984,2470.053,2019-10-16T10:50:55Z
2019-10-16T08:53:33Z,42.805,6.029,13.3048,4.59992,2470.063,2019-10-16T10:53:58Z
2019-10-16T08:56:36Z,42.805,6.029,13.3043,4.60002,2470.063,2019-10-16T10:57:02Z
2019-10-16T08:59:39Z,42.805,6.029,13.3046,4.60017,2470.04,2019-10-16T11:00:05Z
2019-10-16T09:02:43Z,42.805,6.029,13.3045,4.60009,2470.053,2019-10-16T11:03:08Z
2019-10-16T09:05:46Z,42.805,6.029,13.3031,4.60006,2470.053,2019-10-16T11:06:11Z
2019-10-16T09:08:49Z,42.805,6.029,13.3020,4.59991,2470.077,2019-10-16T11:09:15Z
2019-10-16T09:11:52Z,42.805,6.029,13.3019,4.60016,2470.063,2019-10-16T11:12:18Z
2019-10-16T09:14:56Z,42.805,6.029,13.3017,4.60056,2470.063,2019-10-16T11:15:21Z
2019-10-16T09:17:59Z,42.805,6.029,13.3031,4.60026,2470.077,2019-10-16T11:18:24Z
2019-10-16T09:21:02Z,42.805,6.029,13.3020,4.60008,2470.077,2019-10-16T11:21:28Z
2019-10-16T09:24:05Z,42.805,6.029,13.3018,4.60015,2470.063,2019-10-16T11:24:31Z
2019-10-16T09:27:09Z,42.805,6.029,13.3011,4.59995,2470.03,2019-10-16T11:27:34Z
2019-10-16T09:30:12Z,42.805,6.029,13.2999,4.60001,2470.1,2019-10-16T11:30:37Z
2019-10-16T09:33:15Z,42.805,6.029,13.2986,4.60008,2470.077,2019-10-16T11:33:41Z
2019-10-16T09:36:18Z,42.805,6.029,13.2991,4.60014,2470.053,2019-10-16T11:36:44Z
2019-10-16T09:39:22Z,42.805,6.029,13.2996,4.60002,2470.053,2019-10-16T11:39:47Z
2019-10-16T09:42:25Z,42.805,6.029,13.2982,4.60001,2470.04,2019-10-16T11:42:50Z
2019-10-16T09:45:28Z,42.805,6.029,13.3001,4.59981,2470.03,2019-10-16T11:45:53Z
2019-10-16T09:48:31Z,42.805,6.029,13.3034,4.59999,2470.04,2019-10-16T11:48:57Z
2019-10-16T09:51:34Z,42.805,6.029,13.2975,4.60008,2470.04,2019-10-16T11:52:00Z
2019-10-16T09:54:38Z,42.805,6.029,13.2982,4.59993,2470.04,2019-10-16T11:55:03Z
2019-10-16T09:57:41Z,42.805,6.029,13.2983,4.59991,2470.053,2019-10-16T11:58:06Z
2019-10-16T10:00:44Z,42.805,6.029,13.2979,4.60015,2470.04,2019-10-16T12:01:10Z
2019-10-16T10:03:47Z,42.805,6.029,13.2982,4.60001,2470.017,2019-10-16T12:04:13Z
2019-10-16T10:06:51Z,42.805,6.029,13.3000,4.60000,2470.053,2019-10-16T12:07:16Z
2019-10-16T10:09:54Z,42.805,6.029,13.2983,4.60016,2470.053,2019-10-16T12:10:19Z
2019-10-16T10:12:57Z,42.805,6.029,13.2999,4.60005,2470.007,2019-10-16T12:13:23Z
2019-10-16T10:16:00Z,42.805,6.029,13.2986,4.59996,2470.04,2019-10-16T12:16:26Z
2019-10-16T10:19:03Z,42.805,6.029,13.2991,4.59991,2470.053,2019-10-16T12:19:29Z
2019-10-16T10:22:07Z,42.805,6.029,13.3001,4.59993,2470.053,2019-10-16T12:22:32Z
2019-10-16T10:25:10Z,42.805,6.029,13.2993,4.59994,2470.017,2019-10-16T12:25:35Z
2019-10-16T10:28:13Z,42.805,6.029,13.2994,4.59987,2470.017,2019-10-16T12:28:39Z
2019-10-16T10:31:16Z,42.805,6.029,13.3013,4.59993,2470.017,2019-10-16T12:31:42Z
2019-10-16T10:34:20Z,42.805,6.029,13.2998,4.59996,2470.017,2019-10-16T12:34:45Z
2019-10-16T10:37:23Z,42.805,6.029,13.3006,4.59999,2470.03,2019-10-16T12:37:48Z
2019-10-16T10:40:26Z,42.805,6.029,13.2988,4.60002,2470.03,2019-10-16T12:40:52Z
2019-10-16T10:43:29Z,42.805,6.029,13.2996,4.60002,2470.03,2019-10-16T12:43:55Z
2019-10-16T10:46:33Z,42.805,6.029,13.2987,4.59976,2470.03,2019-10-16T12:46:58Z
2019-10-16T10:49:36Z,42.805,6.029,13.2991,4.59975,2470.03,2019-10-16T12:50:01Z
2019-10-16T10:52:39Z,42.805,6.029,13.3007,4.59991,2469.984,2019-10-16T12:53:05Z
2019-10-16T10:55:42Z,42.805,6.029,13.3003,4.59988,2470.03,2019-10-16T12:56:08Z
2019-10-16T10:58:46Z,42.805,6.029,13.2997,4.59991,2470.007,2019-10-16T12:59:11Z
2019-10-16T11:01:49Z,42.805,6.029,13.3011,4.60001,2469.96,2019-10-16T13:02:14Z
2019-10-16T11:04:52Z,42.805,6.029,13.2986,4.59994,2469.984,2019-10-16T13:05:18Z
2019-10-16T11:07:55Z,42.805,6.029,13.2982,4.59996,2470.03,2019-10-16T13:08:21Z
2019-10-16T11:10:59Z,42.805,6.029,13.3009,4.59980,2469.993,2019-10-16T13:11:24Z
2019-10-16T11:14:02Z,42.805,6.029,13.2998,4.59983,2469.97,2019-10-16T13:14:27Z
2019-10-16T11:17:05Z,42.805,6.029,13.2986,4.60017,2469.96,2019-10-16T13:17:30Z
2019-10-16T11:20:08Z,42.805,6.029,13.2994,4.59991,2469.993,2019-10-16T13:20:34Z
2019-10-16T11:23:11Z,42.805,6.029,13.2996,4.60007,2469.984,2019-10-16T13:23:37Z
2019-10-16T11:26:15Z,42.805,6.029,13.3004,4.59983,2469.984,2019-10-16T13:26:40Z
2019-10-16T11:29:18Z,42.805,6.029,13.2993,4.59995,2469.993,2019-10-16T13:29:43Z
2019-10-16T11:32:21Z,42.805,6.029,13.2996,4.59984,2469.96,2019-10-16T13:32:47Z
2019-10-16T11:35:25Z,42.805,6.029,13.2986,4.59987,2470.007,2019-10-16T13:35:50Z
2019-10-16T11:38:28Z,42.805,6.029,13.2991,4.59984,2470.007,2019-10-16T13:38:53Z
2019-10-16T11:41:31Z,42.805,6.029,13.2980,4.59987,2469.984,2019-10-16T13:41:57Z
2019-10-16T11:44:35Z,42.805,6.029,13.3014,4.59987,2469.937,2019-10-16T13:45:00Z
2019-10-16T11:47:38Z,42.805,6.029,13.3010,4.59993,2469.9,2019-10-16T13:48:03Z
2019-10-16T11:50:41Z,42.805,6.029,13.2997,4.59986,2469.937,2019-10-16T13:51:07Z
2019-10-16T11:53:44Z,42.805,6.029,13.2999,4.59988,2469.97,2019-10-16T13:54:10Z
2019-10-16T11:56:48Z,42.805,6.029,13.2993,4.59981,2469.947,2019-10-16T13:57:13Z
2019-10-16T11:59:51Z,42.805,6.029,13.2996,4.59989,2469.923,2019-10-16T14:00:16Z
2019-10-16T12:02:54Z,42.805,6.029,13.2993,4.59978,2469.923,2019-10-16T14:03:19Z
2019-10-16T12:05:57Z,42.805,6.029,13.2993,4.59980,2469.947,2019-10-16T14:06:23Z
2019-10-16T12:09:00Z,42.805,6.029,13.2986,4.59978,2469.947,2019-10-16T14:09:26Z
2019-10-16T12:12:04Z,42.805,6.029,13.2991,4.59985,2469.96,2019-10-16T14:12:29Z
2019-10-16T12:15:07Z,42.805,6.029,13.2984,4.59980,2469.923,2019-10-16T14:15:32Z
2019-10-16T12:18:10Z,42.805,6.029,13.2993,4.59987,2469.96,2019-10-16T14:18:36Z
2019-10-16T12:21:13Z,42.805,6.029,13.2991,4.59982,2469.937,2019-10-16T14:21:39Z
2019-10-16T12:24:17Z,42.805,6.029,13.3006,4.59978,2469.923,2019-10-16T14:24:42Z
2019-10-16T12:27:20Z,42.805,6.029,13.2987,4.59981,2469.923,2019-10-16T14:27:45Z
2019-10-16T12:30:23Z,42.805,6.029,13.2990,4.59986,2469.937,2019-10-16T14:30:48Z
2019-10-16T12:33:26Z,42.805,6.029,13.2987,4.59985,2469.96,2019-10-16T14:33:52Z
2019-10-16T12:36:29Z,42.805,6.029,13.2971,4.60011,2469.96,2019-10-16T14:36:55Z
2019-10-16T12:39:33Z,42.805,6.029,13.2998,4.59978,2469.923,2019-10-16T14:39:58Z
2019-10-16T12:42:36Z,42.805,6.029,13.2990,4.59986,2469.923,2019-10-16T14:43:01Z
2019-10-16T12:45:39Z,42.805,6.029,13.2980,4.59975,2469.96,2019-10-16T14:46:05Z
2019-10-16T12:48:43Z,42.805,6.029,13.2987,4.59981,2469.914,2019-10-16T14:49:08Z
2019-10-16T12:51:46Z,42.805,6.029,13.2990,4.59979,2469.923,2019-10-16T14:52:11Z
2019-10-16T12:54:49Z,42.805,6.029,13.2979,4.59981,2469.923,2019-10-16T14:55:14Z
2019-10-16T12:57:52Z,42.805,6.029,13.2972,4.59978,2469.937,2019-10-16T14:58:18Z
2019-10-16T13:00:55Z,42.805,6.029,13.2981,4.59980,2469.923,2019-10-16T15:01:21Z
2019-10-16T13:03:59Z,42.805,6.029,13.2974,4.59973,2469.937,2019-10-16T15:04:24Z
2019-10-16T13:07:02Z,42.805,6.029,13.2986,4.59977,2469.923,2019-10-16T15:07:27Z
2019-10-16T13:10:05Z,42.805,6.029,13.2979,4.59975,2469.914,2019-10-16T15:10:31Z
2019-10-16T13:13:08Z,42.805,6.029,13.2980,4.59975,2469.937,2019-10-16T15:13:34Z
2019-10-16T13:16:12Z,42.805,6.029,13.2979,4.59975,2469.923,2019-10-16T15:16:37Z
2019-10-16T13:19:15Z,42.805,6.029,13.2979,4.59988,2469.914,2019-10-16T15:19:40Z
2019-10-16T13:22:18Z,42.805,6.029,13.2979,4.59981,2469.914,2019-10-16T15:22:43Z
2019-10-16T13:25:21Z,42.805,6.029,13.2988,4.59987,2469.876,2019-10-16T15:25:47Z
2019-10-16T13:28:24Z,42.805,6.029,13.2988,4.59984,2469.914,2019-10-16T15:28:50Z
2019-10-16T13:31:28Z,42.805,6.029,13.2988,4.59990,2469.923,2019-10-16T15:31:53Z
2019-10-16T13:34:31Z,42.805,6.029,13.2989,4.59983,2469.923,2019-10-16T15:34:56Z
2019-10-16T13:37:34Z,42.805,6.029,13.2992,4.59981,2469.89,2019-10-16T15:38:00Z
2019-10-16T13:40:37Z,42.805,6.029,13.2990,4.59983,2469.9,2019-10-16T15:41:03Z
2019-10-16T13:43:40Z,42.805,6.029,13.2985,4.59990,2469.9,2019-10-16T15:44:06Z
2019-10-16T13:46:44Z,42.805,6.029,13.2981,4.59978,2469.914,2019-10-16T15:47:09Z
2019-10-16T13:49:47Z,42.805,6.029,13.2986,4.59978,2469.9,2019-10-16T15:50:12Z
2019-10-16T13:52:50Z,42.805,6.029,13.2989,4.59981,2469.937,2019-10-16T15:53:16Z
2019-10-16T13:55:54Z,42.805,6.029,13.2991,4.59979,2469.914,2019-10-16T15:56:19Z
2019-10-16T13:58:57Z,42.805,6.029,13.3019,4.59999,2469.876,2019-10-16T15:59:22Z
2019-10-16T14:02:00Z,42.805,6.029,13.2991,4.60001,2469.9,2019-10-16T16:02:26Z
2019-10-16T14:05:03Z,42.805,6.029,13.2990,4.59985,2469.876,2019-10-16T16:05:29Z
2019-10-16T14:08:07Z,42.805,6.029,13.2990,4.59981,2469.89,2019-10-16T16:08:32Z
2019-10-16T14:11:10Z,42.805,6.029,13.2976,4.59981,2469.9,2019-10-16T16:11:35Z
2019-10-16T14:14:13Z,42.805,6.029,13.2982,4.59976,2469.9,2019-10-16T16:14:38Z
2019-10-16T14:17:16Z,42.805,6.029,13.2992,4.59985,2469.9,2019-10-16T16:17:42Z
2019-10-16T14:20:19Z,42.805,6.029,13.2980,4.60001,2469.89,2019-10-16T16:20:45Z
2019-10-16T14:23:23Z,42.805,6.029,13.2974,4.59979,2469.9,2019-10-16T16:23:48Z
2019-10-16T14:26:26Z,42.805,6.029,13.3004,4.60000,2469.876,2019-10-16T16:26:51Z
2019-10-16T14:29:29Z,42.805,6.029,13.2988,4.59978,2469.9,2019-10-16T16:29:55Z
2019-10-16T14:32:32Z,42.805,6.029,13.2974,4.59974,2469.867,2019-10-16T16:32:58Z
2019-10-16T14:35:35Z,42.805,6.029,13.2980,4.59985,2469.89,2019-10-16T16:36:01Z
2019-10-16T14:38:39Z,42.805,6.029,13.2984,4.59984,2469.876,2019-10-16T16:39:04Z
2019-10-16T14:41:42Z,42.805,6.029,13.2997,4.60000,2469.923,2019-10-16T16:42:07Z
2019-10-16T14:44:45Z,42.805,6.029,13.2970,4.59985,2469.853,2019-10-16T16:45:11Z
2019-10-16T14:47:48Z,42.805,6.029,13.2971,4.59992,2469.853,2019-10-16T16:48:14Z
2019-10-16T14:50:52Z,42.805,6.029,13.2983,4.59994,2469.9,2019-10-16T16:51:17Z
2019-10-16T14:53:55Z,42.805,6.029,13.2994,4.60000,2469.9,2019-10-16T16:54:20Z
2019-10-16T14:56:58Z,42.805,6.029,13.2974,4.60010,2469.853,2019-10-16T16:57:23Z
2019-10-16T15:00:01Z,42.805,6.029,13.3001,4.60011,2469.9,2019-10-16T17:00:27Z
2019-10-16T15:03:04Z,42.805,6.029,13.2990,4.60013,2469.89,2019-10-16T17:03:30Z